Miscellaneous Local Product
Issued by NWS Hastings, NE

Home | Current Version | Previous Version | Text Only | Print | Product List | Glossary Off
Versions: 1 2 3 4 5 6 7 8 9 10 11 12 13 14 15 16 17 18 19 20 21 22 23 24 25 26 27 28 29 30 31 32 33 34 35 36 37 38 39 40 41 42 43 44 45 46 47 48 49 50

000
AXUS43 KGID 210902
MISGRI

GID CWA HOURLY WEATHER ROUNDUP
NATIONAL WEATHER SERVICE HASTINGS NE
300 AM CST SAT JAN 21 2017

NOTE: "FAIR" INDICATES FEW OR NO CLOUDS BELOW 12,000 FEET WITH NO
SIGNIFICANT WEATHER AND/OR OBSTRUCTIONS TO VISIBILITY.

...SOUTH CENTRAL NEBRASKA...

CITY           SKY/WX    TMP DP  RH WIND       PRES   REMARKS
GRAND ISLAND   CLOUDY    35  35 100 W9        29.39R WCI  28
HASTINGS       CLOUDY    36  33  89 W9        29.40R WCI  29
KEARNEY        PTCLDY    34 -15  12 W6        29.40S WCI  29
ORD            CLOUDY    35  31  85 CALM      29.36R
YORK           PTCLDY    34  34 100 SW6       29.39S FOG     WCI  29
AURORA         CLOUDY    33  33 100 W7        29.39S FOG     WCI  27
LEXINGTON      CLOUDY    35  32  90 W6        29.40S WCI  30
HOLDREGE       CLOUDY    34  33  98 W8        29.40S WCI  27
HEBRON         SNOW      35  35 100 SW6       29.42R VSB 1/4 WCI  30

...NEBRASKA PANHANDLE...

CITY           SKY/WX    TMP DP  RH WIND       PRES   REMARKS
CHADRON        CLOUDY    33  29  85 W12       29.39R WCI  24
ALLIANCE       CLOUDY    24  22  91 W8        29.38R WCI  15
SCOTTSBLUFF    CLEAR     26  21  81 N7        29.41R WCI  18
SIDNEY         CLEAR     28  21  75 W10       29.42R WCI  19

...WESTERN AND NORTH CENTRAL NEBRASKA...

CITY           SKY/WX    TMP DP  RH WIND       PRES   REMARKS
VALENTINE      CLOUDY    30  27  88 SW8       29.34R WCI  22
AINSWORTH      CLOUDY    32  32  97 W6        29.34S WCI  27
ONEILL         CLOUDY    35  33  94 W6        29.35R WCI  30
BROKEN BOW     CLOUDY    37  34  89 W7        29.36S WCI  32
IMPERIAL       CLOUDY    32  29  88 W8        29.42S WCI  25
NORTH PLATTE   FOG       26  24  92 NW5       29.40R VSB 1/4 WCI  20
MCCOOK         CLEAR     31  31 100 SW8       29.43R WCI  23

...EASTERN NEBRASKA...

CITY           SKY/WX    TMP DP  RH WIND       PRES   REMARKS
NORFOLK        CLOUDY    37  36  96 SW6       29.35S WCI  32
SO SIOUX CITY  FOG       39  38  96 SE5       29.38S VSB 1/4
TEKAMAH        FOG       36  35  96 CALM      29.38S VSB 1/4
COLUMBUS       CLOUDY    37  37 100 SW6       29.38F WCI  33
ALBION         CLOUDY   N/A N/A N/A NW5       29.36S HAZE
OMAHA EPPLEY   FOG       41  38  89 S6        29.39S VSB 1/2
OFFUTT AFB     FOG       41  41 100 CALM      29.39R VSB 1/2
MILLARD        FOG       42  42  97 CALM      29.40S VSB 3/4
LINCOLN        CLOUDY    40  39  97 SW6       29.41S
NEBRASKA CITY  FOG       41  41 100 SW8       29.40S VSB 3/4
BEATRICE       CLOUDY    40  40 100 SW7       29.41S FOG
FALLS CITY     MOCLDY    43  42  97 SW8       29.41S

...NORTHERN KANSAS...

CITY           SKY/WX    TMP DP  RH WIND       PRES   REMARKS
GOODLAND       CLEAR     28  25  88 SW9       29.44R WCI  19
HILL CITY      CLEAR     33  32  96 W8        29.44S WCI  26
NORTON         SUNNY     34  28  80 W9        29.43R WCI  26
PHILLIPSBURG   CLEAR     34  34 100 W6        29.43S WCI  29
SMITH CENTER   PTCLDY    32  32 100 W7        29.43S WCI  26
HAYS           CLEAR     31  30  96 W10       29.47R WCI  22
RUSSELL        CLEAR     33  31  92 SW10      29.44R WCI  25
CONCORDIA      PTCLDY    37  37 100 W8        29.42S WCI  31
SALINA           N/A    N/A N/A N/A MISG        N/A
TOPEKA         PTCLDY    38  34  85 CALM      29.45R FOG



USA.gov is the U.S. government's official web portal to all federal, state and local government web resources and services.